TimeGMT,TemperatureF,Dew PointF,Humidity,Sea Level PressureIn,VisibilityMPH,Wind Direction,Wind SpeedMPH,Gust SpeedMPH,PrecipitationIn,Events,Conditions,WindDirDegrees,DateUTC
2:50 AM,38,37,94,29.86,14,NW,17.3,,,,Partly Cloudy,320,2012-11-29 02:50:00
5:50 AM,39,38,97,29.85,12,NW,19.6,,,,,320,2012-11-29 05:50:00
6:20 AM,44.6,39.2,81,29.83,5.0,North,21.9,-,N/A,,Mostly Cloudy,350,2012-11-29 06:20:00
6:50 AM,39.2,37.4,93,29.83,6.2,NNW,18.4,-,N/A,,Mostly Cloudy,330,2012-11-29 06:50:00
7:20 AM,39.2,37.4,93,29.83,6.2,NNW,20.7,-,N/A,,Mostly Cloudy,330,2012-11-29 07:20:00
7:50 AM,39.2,37.4,93,29.83,6.2,NNW,19.6,-,N/A,,Mostly Cloudy,330,2012-11-29 07:50:00
8:20 AM,39.2,37.4,93,29.83,6.2,NNW,18.4,-,N/A,,Mostly Cloudy,330,2012-11-29 08:20:00
8:50 AM,39,39,99,29.86,13,NNW,18.4,,,,Mostly Cloudy,330,2012-11-29 08:50:00
8:50 AM,39.2,37.4,93,29.83,6.2,NNW,18.4,-,N/A,,Mostly Cloudy,330,2012-11-29 08:50:00
9:20 AM,39.2,37.4,93,29.83,6.2,NW,18.4,-,N/A,,Mostly Cloudy,320,2012-11-29 09:20:00
9:50 AM,41.0,37.4,87,29.83,6.2,NW,19.6,-,N/A,,Mostly Cloudy,320,2012-11-29 09:50:00
10:20 AM,41.0,37.4,87,29.83,6.2,NNW,19.6,-,N/A,,Mostly Cloudy,330,2012-11-29 10:20:00
10:50 AM,41.0,37.4,87,29.83,6.2,NNW,18.4,-,N/A,,Mostly Cloudy,330,2012-11-29 10:50:00
11:20 AM,41.0,39.2,93,29.83,6.2,NNW,17.3,-,N/A,,Mostly Cloudy,330,2012-11-29 11:20:00
11:50 AM,41,40,93,29.86,14,NW,17.3,,,,Mostly Cloudy,320,2012-11-29 11:50:00
11:50 AM,41.0,39.2,93,29.83,6.2,NNW,19.6,-,N/A,,Mostly Cloudy,330,2012-11-29 11:50:00
12:20 PM,41.0,39.2,93,29.83,6.2,NW,19.6,-,N/A,,Mostly Cloudy,320,2012-11-29 12:20:00
12:50 PM,41.0,39.2,93,29.83,6.2,NW,17.3,-,N/A,,Mostly Cloudy,320,2012-11-29 12:50:00
1:20 PM,41.0,39.2,93,29.83,6.2,NW,16.1,-,N/A,,Mostly Cloudy,320,2012-11-29 13:20:00
1:50 PM,41.0,37.4,87,29.83,6.2,NW,16.1,-,N/A,,Mostly Cloudy,320,2012-11-29 13:50:00
2:20 PM,41.0,39.2,93,29.83,6.2,NW,15.0,-,N/A,,Mostly Cloudy,320,2012-11-29 14:20:00
2:50 PM,42,40,88,29.85,17,NW,12.7,,,,Partly Cloudy,320,2012-11-29 14:50:00
2:50 PM,41.0,37.4,87,29.83,6.2,NNW,16.1,-,N/A,,Mostly Cloudy,330,2012-11-29 14:50:00
3:20 PM,41.0,37.4,87,29.83,6.2,NW,16.1,-,N/A,,Mostly Cloudy,320,2012-11-29 15:20:00
3:50 PM,41.0,37.4,87,29.83,6.2,NW,15.0,-,N/A,,Mostly Cloudy,320,2012-11-29 15:50:00
4:20 PM,41.0,37.4,87,29.83,6.2,NNW,13.8,-,N/A,,Mostly Cloudy,330,2012-11-29 16:20:00
4:50 PM,39.2,37.4,93,29.83,6.2,NW,12.7,-,N/A,,Mostly Cloudy,320,2012-11-29 16:50:00
5:20 PM,41.0,37.4,87,29.83,6.2,NNW,13.8,-,N/A,,Mostly Cloudy,340,2012-11-29 17:20:00
5:50 PM,40,39,93,29.83,19,NNW,12.7,,,,Mostly Cloudy,340,2012-11-29 17:50:00
5:50 PM,39.2,37.4,93,29.83,6.2,NNW,13.8,-,N/A,,Mostly Cloudy,340,2012-11-29 17:50:00
8:50 PM,39,39,98,29.83,9,NW,11.5,,,,Mostly Cloudy,320,2012-11-29 20:50:00
11:50 PM,39,39,99,29.83,8,NNW,9.2,,,,Mostly Cloudy,330,2012-11-29 23:50:00